Station Historical Data
 
Daily Summary for April 25, 2018 Units:  English    Metric   Both
« Previous Day
Next Day »
Daily Weekly Monthly Yearly Custom
  Current: High: Low: Average:
Temperature: 55.4 °F TemperatureF °F 51.4 °F 52.9 °F
Dew Point: 54.8 °F DewpointF °F 50.0 °F 52.1 °F
Humidity: 98% Humidity% 95% 96%
Wind Speed: 4.9mph WindSpeedMPHmph 2.1mph 4.7mph
Wind Gust: 33.4mph WindSpeedGustMPHmph - -
WindENE - - East
Pressure: 29.82 in PressureIn in 29.82 in -
Precipitation: 0.49 in      
Historical Graphs
 
 
Tabular Data for April 25, 2018
Time Temperature Dew Point Pressure Wind Wind Speed Wind Gust Humidity Rainfall Rate (Hourly) solar Conditions
TemperatureF °F DewpointF °F PressureIn in Calm     Humidity% HourlyPrecipIn in SoftwareType W/m2 Conditions
00:04 51.4 °F 50.0 °F 30.04 in NE 5.2 mph 33.4 mph 95% 0.04 in WeatherDisplay:10.37 W/m2 -RA
00:09 51.4 °F 50.0 °F 30.04 in ENE 3.3 mph 33.4 mph 95% 0.03 in WeatherDisplay:10.37 W/m2 -RA
00:14 51.4 °F 50.0 °F 30.04 in ENE 4.0 mph 33.4 mph 95% 0.03 in WeatherDisplay:10.37 W/m2 -RA
00:19 51.5 °F 50.1 °F 30.04 in NE 3.8 mph 33.4 mph 95% 0.02 in WeatherDisplay:10.37 W/m2 -RA
00:24 51.5 °F 50.4 °F 30.03 in East 4.5 mph 33.4 mph 96% 0.01 in WeatherDisplay:10.37 W/m2 -RA
00:29 51.5 °F 50.4 °F 30.03 in East 4.6 mph 33.4 mph 96% 0.02 in WeatherDisplay:10.37 W/m2 -RA
00:34 51.6 °F 50.5 °F 30.02 in NE 3.1 mph 33.4 mph 96% 0.02 in WeatherDisplay:10.37 W/m2 -RA
00:39 51.7 °F 50.6 °F 30.02 in NE 3.2 mph 33.4 mph 96% 0.02 in WeatherDisplay:10.37 W/m2 -RA
00:44 51.8 °F 50.7 °F 30.01 in East 3.9 mph 33.4 mph 96% 0.02 in WeatherDisplay:10.37 W/m2 -RA
00:47 51.8 °F 50.7 °F 30.01 in ENE 5.4 mph 33.4 mph 96% 0.02 in WeatherDisplay:10.37 W/m2 -RA
00:52 51.8 °F 50.7 °F 30.01 in ESE 5.1 mph 33.4 mph 96% 0.02 in WeatherDisplay:10.37 W/m2 -RA
00:57 51.9 °F 50.8 °F 30.00 in East 4.7 mph 33.4 mph 96% 0.03 in WeatherDisplay:10.37 W/m2 -RA
01:02 52.0 °F 50.9 °F 30.00 in ENE 4.9 mph 33.4 mph 96% 0.03 in WeatherDisplay:10.37 W/m2 -RA
01:07 52.1 °F 51.0 °F 30.00 in East 6.9 mph 33.4 mph 96% 0.03 in WeatherDisplay:10.37 W/m2 -RA
01:12 52.1 °F 51.0 °F 30.00 in East 3.9 mph 33.4 mph 96% 0.03 in WeatherDisplay:10.37 W/m2 -RA
01:17 52.2 °F 51.1 °F 29.99 in ESE 8.7 mph 33.4 mph 96% 0.04 in WeatherDisplay:10.37 W/m2 -RA
01:22 52.3 °F 51.2 °F 29.99 in East 4.8 mph 33.4 mph 96% 0.04 in WeatherDisplay:10.37 W/m2 -RA
01:27 52.3 °F 51.2 °F 29.98 in East 7.4 mph 33.4 mph 96% 0.03 in WeatherDisplay:10.37 W/m2 -RA
01:32 52.4 °F 51.6 °F 29.98 in East 7.8 mph 33.4 mph 97% 0.03 in WeatherDisplay:10.37 W/m2 -RA
01:37 52.4 °F 51.6 °F 29.97 in ESE 4.9 mph 33.4 mph 97% 0.03 in WeatherDisplay:10.37 W/m2 -RA
01:42 52.6 °F 51.8 °F 29.97 in East 4.4 mph 33.4 mph 97% 0.03 in WeatherDisplay:10.37 W/m2 -RA
01:47 52.6 °F 51.8 °F 29.97 in ESE 3.3 mph 33.4 mph 97% 0.02 in WeatherDisplay:10.37 W/m2 -RA
01:52 52.7 °F 51.9 °F 29.96 in East 5.8 mph 33.4 mph 97% 0.03 in WeatherDisplay:10.37 W/m2 -RA
01:57 52.8 °F 52.0 °F 29.96 in ESE 3.3 mph 33.4 mph 97% 0.02 in WeatherDisplay:10.37 W/m2 -RA
02:02 52.8 °F 52.0 °F 29.95 in East 6.2 mph 33.4 mph 97% 0.03 in WeatherDisplay:10.37 W/m2 -RA
02:07 52.8 °F 52.0 °F 29.95 in East 6.9 mph 33.4 mph 97% 0.03 in WeatherDisplay:10.37 W/m2 -RA
02:12 52.9 °F 52.1 °F 29.95 in East 5.5 mph 33.4 mph 97% 0.04 in WeatherDisplay:10.37 W/m2 -RA
02:17 52.9 °F 52.1 °F 29.95 in ENE 6.7 mph 33.4 mph 97% 0.03 in WeatherDisplay:10.37 W/m2 -RA
02:22 53.0 °F 52.2 °F 29.94 in ENE 5.5 mph 33.4 mph 97% 0.04 in WeatherDisplay:10.37 W/m2 -RA
02:27 53.0 °F 52.2 °F 29.94 in ESE 4.9 mph 33.4 mph 97% 0.04 in WeatherDisplay:10.37 W/m2 -RA
02:32 53.0 °F 52.2 °F 29.94 in East 2.3 mph 33.4 mph 97% 0.04 in WeatherDisplay:10.37 W/m2 -RA
02:37 53.0 °F 52.2 °F 29.94 in ENE 6.9 mph 33.4 mph 97% 0.05 in WeatherDisplay:10.37 W/m2 -RA
02:42 53.1 °F 52.3 °F 29.93 in East 5.7 mph 33.4 mph 97% 0.07 in WeatherDisplay:10.37 W/m2 -RA
02:47 53.0 °F 52.2 °F 29.93 in East 2.2 mph 33.4 mph 97% 0.09 in WeatherDisplay:10.37 W/m2 -RA
02:52 53.1 °F 52.3 °F 29.92 in East 6.7 mph 33.4 mph 97% 0.11 in WeatherDisplay:10.37 W/m2 -RA
02:57 53.1 °F 52.3 °F 29.92 in ESE 6.0 mph 33.4 mph 97% 0.14 in WeatherDisplay:10.37 W/m2 -RA
03:02 53.1 °F 52.3 °F 29.92 in ENE 4.4 mph 33.4 mph 97% 0.14 in WeatherDisplay:10.37 W/m2 RA
03:07 53.1 °F 52.3 °F 29.91 in East 2.8 mph 33.4 mph 97% 0.18 in WeatherDisplay:10.37 W/m2 RA
03:12 53.1 °F 52.3 °F 29.91 in East 3.4 mph 33.4 mph 97% 0.20 in WeatherDisplay:10.37 W/m2 RA
03:17 53.1 °F 52.3 °F 29.91 in ENE 3.6 mph 33.4 mph 97% 0.21 in WeatherDisplay:10.37 W/m2 +RA
03:22 53.0 °F 52.2 °F 29.90 in ESE 6.0 mph 33.4 mph 97% 0.20 in WeatherDisplay:10.37 W/m2 +RA
03:27 53.1 °F 52.3 °F 29.90 in East 6.3 mph 33.4 mph 97% 0.21 in WeatherDisplay:10.37 W/m2 +RA
03:32 53.1 °F 52.3 °F 29.90 in East 6.4 mph 33.4 mph 97% 0.21 in WeatherDisplay:10.37 W/m2 -RA
03:37 53.1 °F 52.3 °F 29.90 in ENE 4.8 mph 33.4 mph 97% 0.21 in WeatherDisplay:10.37 W/m2 -RA
03:42 53.1 °F 52.3 °F 29.90 in East 5.0 mph 33.4 mph 97% 0.20 in WeatherDisplay:10.37 W/m2 -RA
03:47 53.1 °F 52.3 °F 29.90 in East 3.6 mph 33.4 mph 97% 0.18 in WeatherDisplay:10.37 W/m2 -RA
03:52 53.2 °F 52.4 °F 29.90 in NE 4.2 mph 33.4 mph 97% 0.16 in WeatherDisplay:10.37 W/m2 -RA
03:57 53.2 °F 52.4 °F 29.90 in ESE 4.1 mph 33.4 mph 97% 0.13 in WeatherDisplay:10.37 W/m2 -RA
04:02 53.2 °F 52.4 °F 29.89 in ENE 7.1 mph 33.4 mph 97% 0.13 in WeatherDisplay:10.37 W/m2 -RA
04:07 53.2 °F 52.4 °F 29.89 in East 3.9 mph 33.4 mph 97% 0.10 in WeatherDisplay:10.37 W/m2 -RA
04:12 53.2 °F 52.4 °F 29.89 in ENE 3.6 mph 33.4 mph 97% 0.08 in WeatherDisplay:10.37 W/m2 -RA
04:17 53.2 °F 52.4 °F 29.89 in East 3.6 mph 33.4 mph 97% 0.07 in WeatherDisplay:10.37 W/m2 -RA
04:22 53.3 °F 52.5 °F 29.88 in East 3.9 mph 33.4 mph 97% 0.08 in WeatherDisplay:10.37 W/m2 -RA
04:27 53.3 °F 52.5 °F 29.89 in ESE 5.3 mph 33.4 mph 97% 0.08 in WeatherDisplay:10.37 W/m2 -RA
04:32 53.4 °F 52.6 °F 29.88 in East 2.5 mph 33.4 mph 97% 0.08 in WeatherDisplay:10.37 W/m2 -RA
04:37 53.4 °F 52.6 °F 29.88 in ENE 3.2 mph 33.4 mph 97% 0.07 in WeatherDisplay:10.37 W/m2 -RA
04:42 53.4 °F 52.6 °F 29.88 in East 2.7 mph 33.4 mph 97% 0.07 in WeatherDisplay:10.37 W/m2 -RA
04:47 53.5 °F 52.7 °F 29.87 in ENE 4.9 mph 33.4 mph 97% 0.07 in WeatherDisplay:10.37 W/m2 -RA
04:52 53.5 °F 52.7 °F 29.87 in East 4.8 mph 33.4 mph 97% 0.06 in WeatherDisplay:10.37 W/m2 -RA
04:57 53.6 °F 52.8 °F 29.87 in ESE 7.9 mph 33.4 mph 97% 0.08 in WeatherDisplay:10.37 W/m2 -RA
05:02 53.6 °F 52.8 °F 29.87 in East 4.1 mph 33.4 mph 97% 0.08 in WeatherDisplay:10.37 W/m2 -RA
05:07 53.7 °F 52.9 °F 29.87 in East 2.7 mph 33.4 mph 97% 0.08 in WeatherDisplay:10.37 W/m2 -RA
05:12 53.7 °F 52.9 °F 29.87 in East 5.2 mph 33.4 mph 97% 0.07 in WeatherDisplay:10.37 W/m2 -RA
05:17 53.7 °F 52.9 °F 29.86 in ESE 4.2 mph 33.4 mph 97% 0.07 in WeatherDisplay:10.37 W/m2 OVC
05:22 53.8 °F 53.0 °F 29.86 in East 7.4 mph 33.4 mph 97% 0.07 in WeatherDisplay:10.37 W/m2 RA
05:27 53.9 °F 53.1 °F 29.86 in East 3.4 mph 33.4 mph 97% 0.06 in WeatherDisplay:10.37 W/m2 RA
05:32 53.9 °F 53.1 °F 29.85 in ENE 5.4 mph 33.4 mph 97% 0.06 in WeatherDisplay:10.37 W/m2 OVC
05:37 53.9 °F 53.1 °F 29.85 in ESE 4.8 mph 33.4 mph 97% 0.07 in WeatherDisplay:10.37 W/m2 -RA
05:42 54.0 °F 53.2 °F 29.85 in East 4.2 mph 33.4 mph 97% 0.06 in WeatherDisplay:10.37 W/m2 -RA
05:47 54.0 °F 53.2 °F 29.85 in ESE 5.2 mph 33.4 mph 97% 0.06 in WeatherDisplay:10.37 W/m2 -RA
05:52 54.1 °F 53.3 °F 29.84 in East 6.9 mph 33.4 mph 97% 0.06 in WeatherDisplay:10.37 W/m2 +RA
05:57 54.1 °F 53.3 °F 29.84 in East 8.3 mph 33.4 mph 97% 0.04 in WeatherDisplay:10.37 W/m2 +RA
06:02 54.1 °F 53.3 °F 29.84 in ESE 5.6 mph 33.4 mph 97% 0.04 in WeatherDisplay:10.37 W/m2 -RA
06:07 54.2 °F 53.6 °F 29.84 in ENE 5.9 mph 33.4 mph 98% 0.03 in WeatherDisplay:10.37 W/m2 -RA
06:12 54.2 °F 53.4 °F 29.84 in East 5.3 mph 33.4 mph 97% 0.04 in WeatherDisplay:10.37 W/m2 -RA
06:17 54.2 °F 53.4 °F 29.84 in ESE 3.8 mph 33.4 mph 97% 0.04 in WeatherDisplay:10.37 W/m2 -RA
06:22 54.2 °F 53.4 °F 29.84 in ESE 5.7 mph 33.4 mph 97% 0.03 in WeatherDisplay:10.37 W/m2 -RA
06:27 54.3 °F 53.5 °F 29.84 in East 5.9 mph 33.4 mph 97% 0.03 in WeatherDisplay:10.37 W/m2 -RA
06:32 54.3 °F 53.7 °F 29.84 in ESE 3.6 mph 33.4 mph 98% 0.04 in WeatherDisplay:10.37 W/m2 -RA
06:37 54.3 °F 53.5 °F 29.84 in East 7.2 mph 33.4 mph 97% 0.03 in WeatherDisplay:10.37 W/m2 -RA
06:42 54.3 °F 53.5 °F 29.84 in SE 4.1 mph 33.4 mph 97% 0.03 in WeatherDisplay:10.37 W/m2 -RA
06:47 54.3 °F 53.5 °F 29.84 in ESE 4.3 mph 33.4 mph 97% 0.03 in WeatherDisplay:10.37 W/m2 -RA
06:52 54.4 °F 53.6 °F 29.83 in East 4.3 mph 33.4 mph 97% 0.04 in WeatherDisplay:10.37 W/m2 -RA
06:57 54.4 °F 53.6 °F 29.83 in East 5.3 mph 33.4 mph 97% 0.04 in WeatherDisplay:10.37 W/m2 -RA
07:02 54.4 °F 53.6 °F 29.83 in East 4.9 mph 33.4 mph 97% 0.03 in WeatherDisplay:10.37 W/m2 OVC
07:03 54.4 °F 53.6 °F 29.83 in East 5.1 mph 33.4 mph 97% 0.03 in WeatherDisplay:10.37 W/m2 OVC
07:08 54.5 °F 53.7 °F 29.83 in East 3.6 mph 33.4 mph 97% 0.03 in WeatherDisplay:10.37 W/m2 OVC
07:13 54.5 °F 53.7 °F 29.83 in ESE 5.3 mph 33.4 mph 97% 0.02 in WeatherDisplay:10.37 W/m2 OVC
07:18 54.5 °F 53.7 °F 29.83 in East 4.5 mph 33.4 mph 97% 0.02 in WeatherDisplay:10.37 W/m2 -RA
07:23 54.6 °F 53.8 °F 29.83 in ESE 4.8 mph 33.4 mph 97% 0.02 in WeatherDisplay:10.37 W/m2 -RA
07:28 54.6 °F 54.0 °F 29.83 in East 3.1 mph 33.4 mph 98% 0.02 in WeatherDisplay:10.37 W/m2 -RA
07:33 54.7 °F 54.1 °F 29.83 in ENE 4.7 mph 33.4 mph 98% 0.02 in WeatherDisplay:10.37 W/m2 -RA
07:38 54.7 °F 54.1 °F 29.83 in SE 2.3 mph 33.4 mph 98% 0.02 in WeatherDisplay:10.37 W/m2 -RA
07:43 54.8 °F 54.2 °F 29.83 in ESE 2.5 mph 33.4 mph 98% 0.02 in WeatherDisplay:10.37 W/m2 -RA
07:48 54.9 °F 54.3 °F 29.83 in ESE 6.1 mph 33.4 mph 98% 0.02 in WeatherDisplay:10.37 W/m2 -RA
07:53 54.9 °F 54.3 °F 29.83 in ESE 3.6 mph 33.4 mph 98% 0.01 in WeatherDisplay:10.37 W/m2 -RA
07:58 54.9 °F 54.3 °F 29.83 in ESE 3.5 mph 33.4 mph 98% 0.01 in WeatherDisplay:10.37 W/m2 -RA
08:03 55.0 °F 54.4 °F 29.83 in ESE 5.1 mph 33.4 mph 98% 0.01 in WeatherDisplay:10.37 W/m2 -RA
08:08 55.0 °F 54.4 °F 29.82 in ENE 4.0 mph 33.4 mph 98% 0.01 in WeatherDisplay:10.37 W/m2 -RA
08:13 55.1 °F 54.5 °F 29.82 in East 2.1 mph 33.4 mph 98% 0.01 in WeatherDisplay:10.37 W/m2 -RA
08:18 55.2 °F 54.6 °F 29.82 in ESE 2.3 mph 33.4 mph 98% 0.01 in WeatherDisplay:10.37 W/m2 -RA
08:23 55.2 °F 54.6 °F 29.82 in East 3.2 mph 33.4 mph 98% 0.01 in WeatherDisplay:10.37 W/m2 -RA
08:28 55.3 °F 54.7 °F 29.82 in East 2.1 mph 33.4 mph 98% 0.01 in WeatherDisplay:10.37 W/m2 -RA
08:33 55.4 °F 54.8 °F 29.82 in ENE 4.9 mph 33.4 mph 98% 0.00 in WeatherDisplay:10.37 W/m2 -RA
East Vincent, PA, USA
Compliments of Weather Underground - 2.75 mb